Location: Châteauvieux
(47.2310°N, 1.3828°E)
Time: 22:08:35
(UTC+00:00)

Cosmos 2360 Rocket - Pass Details

Date: 15 May 2026
Orbit: 831 x 845 km, 71.0° (Epoch: 11 June)

Event Time Altitude Azimuth Distance (km) Brightness Sun altitude
Rises 20:01:07 0° 338° (NNW) 3,415 6.5 -6.1°
Reaches altitude 10° 20:04:01 10° 351° (N) 2,477 5.4 -6.5°
Maximum altitude 20:08:42 26° 47° (NE) 1,624 3.6 -7.1°
Drops below altitude 10° 20:13:21 10° 102° (ESE) 2,465 4.1 -7.7°
Enters shadow 20:14:08 - 107° (ESE) 2,703 4.3 -7.8°
